Home   Weather   Fevik   Past weeks

Flag for Norway Past Weather in Fevik, Norway — Yesterday and Last 2 Weeks

Now
46 °F

Cool.


Feels Like: 42 °F
Forecast: 37 / 42 °F
Wind: 7 mph from Southwest

Location: Torungen Fyr

Current Time: Jan 20, 2017 at 3:21:05 pm

Latest Report: Jan 20, 2017 at 2:00 pm


Visibility: N/A

Pressure: 30.35 "Hg

Humidity: 79%

Dew Point: 40 °F

Location of FevikLocation

Past Weather in Fevik — Graph

°F

Fevik Temperature Yesterday

Maximum temperature yesterday: 50 °F (at 2:00 pm)
Minimum temperature yesterday: 42 °F (at 3:00 am)
Average temperature yesterday: 45 °F

High & Low Weather Summary for the Past Weeks

 TemperatureHumidityPressure
High50 °F (Jan 19, 2:00 pm)98% (Jan 7, 2:00 am)30.71 "Hg (Jan 7, 2:00 am)
Low22 °F (Jan 5, 10:00 pm)46% (Jan 16, 3:00 pm)28.58 "Hg (Jan 11, 1:00 pm)
Average38 °F82%29.94 "Hg
* Reported Jan 5 1:00 pm — Jan 20 1:00 pm, Fevik, Weather by CustomWeather, © 2017

Note: Actual official high and low records may vary slightly from our data, if they occured in-between our weather recording intervals... More about our weather records

Advertising

Fevik Weather History for the Previous 24 Hours

Scroll right to see more
 ConditionsComfort  
Time TempWeatherWind HumidityBarometerVisibility
1:00 pm
Fri, Jan 20
47 °FCool.9 mph76%30.36 "HgN/A
12:00 pm46 °FCool.9 mph82%30.36 "HgN/A
11:00 am46 °FCool.7 mph80%30.35 "HgN/A
10:00 am46 °FCool.9 mph79%30.33 "HgN/A
9:00 am45 °FQuite cool.9 mph81%30.33 "HgN/A
8:00 am45 °FQuite cool.10 mph84%30.32 "HgN/A
7:00 am44 °FQuite cool.10 mph90%30.32 "HgN/A
6:00 am44 °FQuite cool.10 mph90%30.33 "HgN/A
5:00 am44 °FQuite cool.13 mph89%30.33 "HgN/A
4:00 am44 °FQuite cool.9 mph83%30.34 "HgN/A
3:00 am46 °FCool.6 mph78%30.35 "HgN/A
2:00 am46 °FCool.7 mph77%30.36 "HgN/A
1:00 am47 °FCool.12 mph74%30.36 "HgN/A
12:00 am46 °FCool.8 mph77%30.37 "HgN/A
11:00 pm
Thu, Jan 19
42 °FQuite cool.8 mph84%30.37 "HgN/A
10:00 pm44 °FQuite cool.6 mph89%30.38 "HgN/A
9:00 pm44 °FQuite cool.7 mph89%30.38 "HgN/A
8:00 pm45 °FCool.10 mph86%30.36 "HgN/A
7:00 pm46 °FCool.12 mph86%30.35 "HgN/A
6:00 pm46 °FCool.10 mph86%30.35 "HgN/A
5:00 pm48 °FCool.9 mph78%30.35 "HgN/A
4:00 pm49 °FCool.12 mph75%30.34 "HgN/A
3:00 pm50 °FCool.14 mph76%30.34 "HgN/A
Weather by CustomWeather, © 2017

See weather overviewHow to use our weather pages